Regional Weather Roundup
Issued by NWS

Home | Current Version | Previous Version | Graphics & Text | Print | Product List | Glossary On
Versions: 1 2 3 4 5 6 7 8 9 10 11 12 13 14 15 16 17 18 19 20 21 22 23 24 25 26 27 28 29 30 31 32 33 34 35 36 37 38 39 40 41 42 43 44 45 46 47 48 49 50
000
ASUS43 KBIS 211310
RWRND

NORTH DAKOTA REGIONAL WEATHER ROUNDUP
NATIONAL WEATHER SERVICE BISMARCK ND
800 AM CDT SAT OCT 21 2017

NOTE: "FAIR" INDICATES FEW OR NO CLOUDS BELOW 12,000 FEET WITH NO
SIGNIFICANT WEATHER AND/OR OBSTRUCTIONS TO VISIBILITY.


NDZ001>003-009>011-017-211400-
NORTHWEST NORTH DAKOTA

CITY           SKY/WX    TMP DP  RH WIND       PRES   REMARKS
WILLISTON        N/A    N/A N/A N/A MISG      29.50R
MINOT          MOCLDY    49  38  65 SW20G30   29.41R
MINOT AFB      PTCLDY    48  38  69 W20G28    29.38R
$$

NDZ018>021-031>035-040>046-211400-
SOUTHWEST NORTH DAKOTA

CITY           SKY/WX    TMP DP  RH WIND       PRES   REMARKS
BISMARCK       LGT RAIN  51  39  63 W26G37    29.52R
DICKINSON      CLOUDY    45  34  65 W24G32    29.54R
GARRISON         N/A     48  38  68 W20G32    29.47R
HETTINGER ARPT CLOUDY    46  29  51 W28G38    29.60R
$$

NDZ004>008-012>016-024-026-027-054-211400-
NORTHEAST NORTH DAKOTA

CITY           SKY/WX    TMP DP  RH WIND       PRES   REMARKS
GRAND FORKS    PTCLDY    62  58  86 S16G24    29.36R
GRND FRKS AFB  CLEAR     59  56  89 SW15      29.37R
DEVILS LAKE    CLOUDY    49  38  65 SW12      29.37R
$$

NDZ022-023-025-028>030-036>039-047>053-211400-
SOUTHEAST NORTH DAKOTA

CITY           SKY/WX    TMP DP  RH WIND       PRES   REMARKS
FARGO          MOCLDY    63  58  83 S17G29    29.41R
JAMESTOWN      CLOUDY    51  37  58 W10       29.40F
$$





USA.gov is the U.S. government's official web portal to all federal, state and local government web resources and services.